| time (UTC) | temp C | wind direction | speed KPH | gust KPH | rain 1hr cm | rain 24hr cm | rain mn cm | humidity % | barometer mb |
| 20260504081542 | 2 | 220 | 35.4 | 59.5 | 0.03 | 1.85 | 0.28 | 97 | 981.6 |
| 20260504044537 | 3 | 228 | 24.1 | 46.7 | 0.00 | 1.65 | 0.08 | 99 | 975.1 |
| 20260504043044 | 3 | 184 | 24.1 | 45.1 | 0.03 | 1.65 | 0.08 | 99 | 974.3 |
| 20260504041541 | 3 | 179 | 14.5 | 38.6 | 0.03 | 1.65 | 0.08 | 98 | 973.7 |
| 20260504040040 | 2 | 150 | 17.7 | 37.0 | 0.08 | 1.65 | 0.08 | 98 | 973.3 |
| 20260504034543 | 3 | 149 | 24.1 | 51.5 | 0.13 | 1.65 | 0.08 | 98 | 973.4 |
| 20260504033050 | 3 | 154 | 29.0 | 54.7 | 0.13 | 1.63 | 0.05 | 98 | 974.1 |
| 20260504031538 | 3 | 105 | 32.2 | 67.6 | 0.13 | 1.63 | 0.05 | 98 | 974.8 |
| 20260504030059 | 3 | 117 | 29.0 | 62.8 | 0.08 | 1.57 | 0.00 | 98 | 975.6 |
| 20260504024544 | 3 | 103 | 37.0 | 67.6 | 0.03 | 1.52 | 1.52 | 98 | 976.6 |
| 20260504023038 | 3 | 90 | 35.4 | 56.3 | 0.00 | 1.47 | 1.47 | 98 | 977.7 |
| 20260504021545 | 3 | 130 | 37.0 | 61.2 | 0.00 | 1.47 | 1.47 | 98 | 978.7 |
| 20260504020046 | 3 | 138 | 29.0 | 54.7 | 0.00 | 1.47 | 1.47 | 98 | 979.6 |
| 20260504014543 | 3 | 137 | 30.6 | 49.9 | 0.00 | 1.47 | 1.47 | 98 | 980.5 |
| 20260504013041 | 4 | 105 | 30.6 | 53.1 | 0.03 | 1.47 | 1.47 | 98 | 981.4 |
| 20260504011538 | 5 | 149 | 27.4 | 46.7 | 0.05 | 1.47 | 1.47 | 98 | 982.0 |
| 20260504010040 | 5 | 156 | 25.7 | 45.1 | 0.08 | 1.47 | 1.47 | 98 | 982.6 |
| 20260504004540 | 5 | 92 | 27.4 | 46.7 | 0.10 | 1.47 | 1.47 | 99 | 983.2 |
| 20260504003042 | 4 | 96 | 30.6 | 61.2 | 0.08 | 1.47 | 1.47 | 98 | 983.4 |
| 20260504001544 | 3 | 108 | 29.0 | 61.2 | 0.08 | 1.45 | 1.45 | 98 | 984.0 |
| 20260504000104 | 3 | 72 | 27.4 | 57.9 | 0.08 | 1.42 | 1.42 | 98 | 984.6 |
| 20260503234540 | 3 | 97 | 38.6 | 64.4 | 0.10 | 1.40 | 1.40 | 98 | 984.9 |
| 20260503233040 | 3 | 62 | 43.5 | 82.1 | 0.18 | 1.40 | 1.40 | 98 | 985.9 |
| 20260503231546 | 3 | 87 | 30.6 | 75.6 | 0.25 | 1.37 | 1.37 | 98 | 986.9 |
| 20260503230045 | 3 | 88 | 33.8 | 67.6 | 0.38 | 1.32 | 1.32 | 98 | 987.4 |
| 20260503224537 | 3 | 58 | 29.0 | 62.8 | 0.46 | 1.30 | 1.30 | 98 | 988.2 |
| 20260503223041 | 3 | 80 | 27.4 | 53.1 | 0.53 | 1.19 | 1.19 | 98 | 989.4 |
| 20260503221541 | 2 | 58 | 30.6 | 53.1 | 0.58 | 1.12 | 1.12 | 98 | 990.4 |
| 20260503220038 | 2 | 64 | 32.2 | 53.1 | 0.46 | 0.97 | 0.97 | 98 | 991.8 |
| 20260503214538 | 2 | 71 | 27.4 | 51.5 | 0.36 | 0.81 | 0.81 | 97 | 993.1 |
| 20260503213044 | 2 | 57 | 20.9 | 53.1 | 0.30 | 0.66 | 0.66 | 97 | 993.7 |
| 20260503211543 | 2 | 78 | 24.1 | 45.1 | 0.28 | 0.53 | 0.53 | 97 | 994.4 |
| 20260503210040 | 2 | 67 | 30.6 | 57.9 | 0.30 | 0.51 | 0.51 | 97 | 994.5 |
| 20260503204540 | 2 | 56 | 24.1 | 51.5 | 0.28 | 0.46 | 0.46 | 97 | 995.5 |
| 20260503203043 | 2 | 75 | 25.7 | 45.1 | 0.23 | 0.36 | 0.36 | 97 | 995.8 |
| 20260503201539 | 3 | 77 | 32.2 | 51.5 | 0.15 | 0.25 | 0.25 | 96 | 996.9 |
| 20260503200045 | 3 | 64 | 33.8 | 57.9 | 0.13 | 0.20 | 0.20 | 96 | 996.7 |
| 20260503194538 | 4 | 71 | 33.8 | 54.7 | 0.18 | 0.18 | 0.18 | 96 | 997.7 |
| 20260503193042 | 5 | 67 | 20.9 | 40.2 | 0.13 | 0.13 | 0.13 | 96 | 998.8 |
| 20260503191539 | 5 | 79 | 20.9 | 35.4 | 0.10 | 0.10 | 0.10 | 95 | 999.1 |
| 20260503190038 | 5 | 31 | 19.3 | 38.6 | 0.08 | 0.08 | 0.08 | 94 | 1000.1 |
| 20260503184556 | 5 | 60 | 25.7 | 49.9 | 0.00 | 0.00 | 0.00 | 91 | 1001.2 |
| 20260503183037 | 6 | 50 | 25.7 | 48.3 | 0.00 | 0.00 | 0.00 | 90 | 1001.0 |
| 20260503181537 | 5 | 65 | 24.1 | 49.9 | 0.00 | 0.00 | 0.00 | 91 | 1002.9 |
| 20260503180038 | 5 | 47 | 14.5 | 33.8 | 0.00 | 0.00 | 0.00 | 93 | 1003.7 |
| 20260503174540 | 5 | 20 | 22.5 | 37.0 | 0.00 | 0.00 | 0.00 | 92 | 1004.0 |
| 20260503173038 | 5 | 44 | 14.5 | 27.4 | 0.00 | 0.00 | 0.00 | 90 | 1005.2 |
| 20260503171602 | 5 | 52 | 12.9 | 25.7 | 0.00 | 0.00 | 0.00 | 86 | 1006.1 |